Regional Weather Roundup
Issued by NWS New Orleans/Baton Rouge, LA

Home | Current Version | Previous Version | Text Only | Print | Product List | Glossary On
Versions: 1 2 3 4 5 6 7 8 9 10 11 12 13 14 15 16 17 18 19 20 21 22 23 24 25 26 27 28 29 30 31 32 33 34 35 36 37 38 39 40 41 42 43 44 45 46 47 48 49 50
000
ASUS44 KLIX 300905
RWRLIX
NEW ORLEANS REGIONAL WEATHER ROUNDUP
NATIONAL WEATHER SERVICE NEW ORLEANS LA
300 AM CST FRI JAN 30 2015

NOTE: "FAIR" INDICATES FEW OR NO CLOUDS BELOW 12,000 FEET WITH NO
      SIGNIFICANT WEATHER AND/OR OBSTRUCTIONS TO VISIBILITY.
      SKY/WX - SKY CONDITION AND SIGNIFICANT WEATHER.
      TMP - AIR TEMPERATURE.     DP    - DEWPOINT TEMPERATURE.
      RH  - RELATIVE HUMIDITY.   PRES  - PRESSURE.
      HI  - HEAT INDEX.          WCI   - WIND CHILL INDEX.

*  THESE STATIONS ARE NOT NWS OR FAA STATIONS AND ARE NOT UNDER
   NWS QUALITY CONTROL.

LAZ038-040-048-061>063-065>067-069-301000-
SOUTHEAST LOUISIANA

CITY           SKY/WX    TMP DP  RH WIND       PRES   REMARKS
N.O. AUDUBON   NOT AVBL
N.O. INTL ARPT PTCLDY    57  46  66 N14       30.27R
N.O. LAKEFRONT CLEAR     58  48  69 N17       30.28R
N.O. DOWNTOWN* NOT AVBL
SLIDELL        CLEAR     56  42  59 N13       30.27R
BATON ROUGE    CLEAR     52  41  66 N9        30.31R
BOOTHVILLE     PTCLDY    59  58  96 NW9       30.24S
BELLE CHASSE   PTCLDY    59  49  69 N9        30.26R
BOGALUSA*        N/A     53  40  61 N15G21    30.31S
GALLIANO*      MOSUNNY   56  55  96 NW9       30.25S
NEW ROADS*       N/A     49  39  68 N13G18    30.34R
GONZALES*        N/A     56  44  62 N8G16     30.29R
HAMMOND*       CLEAR     54  41  62 N12G20    30.32R
HOUMA*         PTCLDY    56  56  99 N9        30.25S
PORT FOURCHON* SUNNY     61  59  94 NW8       30.27S

$$

MSZ070-080>082-301000-
SOUTHERN MISSISSIPPI

CITY           SKY/WX    TMP DP  RH WIND       PRES   REMARKS
MCCOMB         PTCLDY    47  37  68 N10       30.33R
GULFPORT       PTCLDY    56  48  74 N10       30.25R
BILOXI         PTCLDY    57  48  71 VRB7      30.25R
PASCAGOULA     PTCLDY    56  49  77 N12       30.25R

$$

COASTAL OBSERVATIONS
LAKE AND NEARSHORE STATIONS

STATION/POSITION TIME  TEMP    WIND        PRES    WAVE
                       AIR SEA DIR/SP/G            HT/PER
                 (UTC) (F)     (DEG/KT/KT) (MB)    (FT/S)
PASCAGOULA       0900   58     360/ 10/ 16 1023.5
WAVELAND YACHT   0900   58     360/ 11/ 15 1023.8
GRAND ISLE       0900   62 63  320/ 10/ 12 1024.3
SOUTHWEST PASS   0900   58 48  290/  9/ 11 1024.0
NEW CANAL        0900   57 56   20/ 13/ 16 1025.3
SHELL BEACH      0900   59 57  360/ 12/ 14 1024.3

OFFSHORE STATIONS

STATION/POSITION TIME  TEMP    WIND        PRES    WAVE
                       AIR SEA DIR/SP/G            HT/PER
                 (UTC) (F)     (DEG/KT/KT) (MB)    (FT/S)
64 S DAUPHIN ISL 0841   66 68  300/ 19/ 21 1023.1    3/ 4

$$



USA.gov is the U.S. government's official web portal to all federal, state and local government web resources and services.